Voltar ao catálogo

THORAD AGENA D DEB

AtivoLEO
NORAD 5430·DEBRIS·🇺🇸 United States

Lançado Sep 30, 1969 de Vandenberg Space Force Base

Loading…

Próximas Passagens (próximas 24 horas)

TLE

AtualizadoSource: Space-Track

Época: Sep 14, 2026, 04:56 UTC

1 05430U 69082HW  26257.20581439  .00000575  00000-0  28609-3 0  9996
2 05430  70.1066 184.1647 0057653 193.0355 166.9278 14.20936542925884

Acompanhe THORAD AGENA D DEB em tempo real com AllMySat

Download on the App Store